Tracking 25963 objects as of 13-Aug-2022
HD Live streaming from Space Station
objects crossing your sky now

STARLINK-3525

Track STARLINK-3525 now!
10-day predictions
STARLINK-3525 is classified as:


NORAD ID: 51733
Int'l Code: 2022-016V
Perigee: 545.6 km
Apogee: 548.1 km
Inclination: 53.2 °
Period: 95.4 minutes
Semi major axis: 6917 km
RCS: Unknown
Launch date: February 21, 2022
Source: United States (US)
Launch site: AIR FORCE EASTERN TEST RANGE (AFETR)
aabbcc
Your satellite tracking list
Your tracking list is empty




NASA's NSSDC Master Catalog

Two Line Element Set (TLE):
1 51733U 22016V   22224.58334491  .00007742  00000-0  50373-3 0  9990
2 51733  53.2175  57.9590 0001802  64.3726 158.3012 15.08859076  1301
Source of the keplerian elements: AFSPC